2021-062D (49024 NORAD) Tracking and Keplerian Element Data

This shows tracking and keplerian element data for the satellite.

Feedback or suggestion? Click here.




ElementValue
Catalog49024
Name2021-062D
Epoch Orbit292
Epoch Day211.19511559
Epoch Year2021
RAAN213.6307
Inclination98.704
Eccentricity0.0003609
Argument of Perigee218.9225
Mean Anonmoly141.1678
Mean Motion14.27108609
Decay Rate6.3E-07
L11 49024U 21062D 21211.19511559 .00000063 00000-0 44203-4 0 9999
L22 49024 98.7040 213.6307 0003609 218.9225 141.1678 14.27108609 2927

Live tracking and technical data element details for 2021-062D (NORAD 49024). 2021-062D can be tracked NOW for your location showing map with azimuth and elevation plus other details from your city location.

Track the satellite on the map from your city or location and see movement details for azimuth, elevation, latitude, longitude, range, height, and movement on the map or in text.







IsCatalogInMostPopularTable: catalog: 49024, numindb: 1
Update: records affected: 1



GetName: 49024 2021-062D

Hit Count: updated at: Sat, 31 Jul 2021 15:51:15 GMT